Location: Mequon Rotary Park
(43.2522°N, 87.9594°W)
Time: 08:40:21
(UTC-05:00)

Daily predictions for brighter satellites

Satellite Brightness Start Highest point End
(mag) Time Altitude Azimuth Time Altitude Azimuth Time Altitude Azimuth
METEOR-M 4.4 19:27:43 10° S 19:33:03 80° WSW 19:38:25 10° NNW
Resurs 1-3 4.4 19:31:19 10° SE 19:35:13 32° ENE 19:39:08 10° N
Cosmos 2150 Rocket 3.9 19:30:08 10° SSW 19:35:15 73° ESE 19:40:25 10° NNE
Cosmos 990 Rocket 4.1 19:31:39 10° S 19:36:46 57° ESE 19:41:55 10° NNE
COSMO-SKYMED 1 4.1 19:33:13 10° N 19:37:20 42° WNW 19:41:25 10° SW
RESURS DK-1 2.4 19:35:02 10° NNW 19:39:08 60° ENE 19:43:13 10° SE
BREEZE-M DEB (TANK) 3.6 19:37:19 10° SSW 19:39:48 33° SE 19:45:03 10° ENE
Cosmos 1898 Rocket 3.8 19:37:01 10° SSW 19:42:20 76° WNW 19:47:38 10° NNE
Envisat 4.4 19:41:05 10° ESE 19:44:39 20° ENE 19:48:14 10° NNE
Lacrosse 5 1.9 19:43:23 10° SSW 19:48:22 62° SE 19:53:23 10° NE
Cosmos 1125 Rocket 4.4 19:46:49 10° SSE 19:51:03 26° E 19:55:20 10° NE
Cosmos 2344 3.6 19:43:56 10° SSW 19:51:32 73° ESE 20:00:06 10° NE
BREEZE-M DEB (TANK) 4.3 19:50:32 10° SSE 19:53:14 20° ESE 19:58:38 10° ENE
CZ-2D R/B 3.8 19:50:08 10° SE 19:53:45 39° ENE 19:57:25 10° N
FREGAT/IRIS 3.8 19:51:38 10° S 19:54:37 48° W 19:57:36 10° NNW
Geosat 4.5 19:52:50 10° NE 19:57:30 37° ESE 20:02:08 10° S
Cosmos 1805 3.8 19:55:05 10° SSE 19:58:39 35° E 20:02:14 10° NNE
Cosmos 1934 Rocket 3.9 19:52:42 10° S 19:58:50 79° E 20:04:56 10° N
Okean 3 Rocket 3.8 19:54:34 10° N 19:58:51 49° ENE 20:03:06 10° SSE
SAR-Lupe-4 4.5 19:55:58 10° SE 19:59:07 30° ENE 20:02:17 10° N
Tiangong 1 2.4 19:58:00 10° W 20:00:38 29° SSW 20:03:03 11° SE
In-Cosmos 22 4.0 19:58:05 10° N 20:03:24 66° ENE 20:08:38 10° SSE
HJ-1C 3.7 20:00:26 10° S 20:03:49 71° WSW 20:07:15 10° NNW
Abrixas 2.4 20:02:18 10° WNW 20:05:08 63° NNE 20:06:57 19° E
Cosmos 1437 Rocket 3.8 20:01:31 10° SSW 20:05:25 51° WNW 20:09:26 10° N
Meteor 1-22 Rocket 4.4 19:59:48 10° S 20:05:38 89° W 20:11:43 10° N
Cosmos 1844 Rocket 3.8 20:02:04 10° SW 20:07:32 49° WNW 20:13:01 10° NNE
Cosmos 1378 4.4 20:05:37 10° NNW 20:09:13 44° W 20:12:47 10° SSW
SL-27 R/B 3.2 20:07:36 10° NNW 20:11:07 55° WSW 20:14:40 10° S
Cosmos 1937 Rocket 4.2 20:06:56 10° SW 20:12:06 58° WNW 20:17:20 10° NNE
SeaSat 1 3.1 20:07:34 10° SSE 20:12:24 57° WSW 20:17:17 10° NW
SJ-6B 4.3 20:09:10 10° SSW 20:12:38 37° W 20:16:09 10° NNW
Cosmos 1470 4.1 20:12:27 18° ESE 20:13:44 21° E 20:16:44 10° NE
USA 186 1.3 20:15:09 30° ESE 20:15:46 39° ENE 20:17:53 10° N
Cosmos 1812 Rocket 4.4 20:11:37 10° SSW 20:15:57 54° W 20:20:17 10° N
Cosmos 1340 Rocket 4.2 20:13:07 10° NNE 20:16:12 21° ENE 20:17:06 19° E
Cosmos 1833 Rocket 3.2 20:12:06 10° NNW 20:17:26 42° ENE 20:21:14 18° ESE
Meteor 1-29 3.8 20:15:30 10° NE 20:18:33 28° E 20:21:00 14° SSE
SAR-Lupe-1 4.4 20:16:04 15° SE 20:18:43 44° ENE 20:22:09 10° N
H-2A R/B (2) 3.9 20:17:12 10° SSW 20:18:51 12° SSE 20:20:59 10° SE
Cosmos 1818 3.6 20:15:20 10° NNW 20:20:47 69° NE 20:25:01 17° SE
Cosmos 1076 Rocket 3.6 20:17:00 10° N 20:21:11 54° E 20:25:13 11° SSE
OE (NEXTSAT) 4.3 20:18:23 10° WSW 20:21:58 76° SSE 20:24:08 22° ENE
Cosmos 2278 Rocket 2.3 20:16:21 10° SSW 20:22:02 85° WNW 20:27:45 10° NNE
FENGYUN 3A 4.4 20:16:45 10° S 20:22:03 55° W 20:27:21 10° NNW
COSMOS 2487 3.2 20:19:03 10° N 20:22:22 35° ENE 20:23:40 26° ESE
GP-B 3.4 20:20:01 10° SSE 20:24:13 44° E 20:28:27 10° N
Meteor 1-4 Rocket 2.4 20:21:49 10° S 20:25:13 55° E 20:28:39 10° NNE
Helios 1B rocket 2.6 20:22:40 10° NNE 20:26:43 49° E 20:30:42 10° S
Cosmos 1733 4.1 20:27:32 27° ESE 20:28:00 27° E 20:31:20 10° NNE
Resurs 01 Rocket 2.2 20:24:16 10° S 20:28:37 59° W 20:33:00 10° NNW
CZ-3B DEB 3.1 20:18:23 10° WSW 20:29:17 67° NW 20:34:10 10° NE
Cosmos 1269 Rocket 4.1 20:24:58 10° NNW 20:30:12 60° ENE 20:33:58 19° SE
Cosmos 1766 Rocket 3.8 20:26:56 10° N 20:31:20 51° ENE 20:34:17 20° SSE
Cosmos 1544 3.0 20:27:49 10° S 20:31:28 88° W 20:35:09 10° N
H-2A R/B 3.9 20:30:52 10° S 20:34:36 44° W 20:38:23 10° NNW
Cosmos 1758 3.2 20:32:21 10° S 20:36:20 87° E 20:40:21 10° N
Cosmos 2297 3.7 20:31:09 10° S 20:36:45 60° ESE 20:42:24 10° NNE
Lacrosse 4 Rocket 4.0 20:34:14 10° W 20:37:20 21° NW 20:40:27 10° N
Helios 1A 2.9 20:33:38 12° SSE 20:37:28 84° ENE 20:41:40 10° NNW
ATLAS 5 CENTAUR R/B 2.4 20:33:22 10° S 20:37:31 33° ESE 20:41:12 14° ENE
Cosmos 1605 Rocket 4.3 20:34:21 10° SSW 20:40:36 72° W 20:46:59 10° N
Cosmos 2100 Rocket 4.1 20:35:39 10° SSE 20:41:43 52° E 20:47:51 10° NNE
Cosmos 2098 Rocket 4.4 20:36:06 10° S 20:43:17 84° E 20:50:57 10° N
Cosmos 1953 2.4 20:41:00 10° S 20:45:05 81° W 20:49:09 10° N
Cosmos-2242 3.0 20:44:00 16° SSE 20:47:12 55° E 20:51:22 10° NNE
Cosmos 1939 Rocket 3.0 20:46:50 37° SE 20:48:11 56° ENE 20:52:17 10° N
Cosmos 2082 Rocket 2.1 20:45:31 10° NNW 20:51:15 83° ENE 20:54:34 26° SSE
Cosmos 372 Rocket 3.8 20:48:04 10° S 20:53:08 71° ESE 20:58:17 10° NNE
Cosmos 1867 3.4 20:51:42 10° SSW 20:57:09 78° ESE 21:02:38 10° NE
USA 215 3.2 20:55:03 10° NE 21:01:32 61° SE 21:07:57 10° SW
Cosmos 1802 Rocket 4.0 20:56:21 13° SSE 21:01:39 57° E 21:07:41 10° NNE
Cosmos 1271 Rocket 2.6 21:00:43 41° S 21:01:59 73° E 21:06:01 10° NNE
Cosmos 158 Rocket 3.9 20:57:02 10° NNW 21:02:11 87° WSW 21:04:41 32° SSE
Cosmos 1743 Rocket 3.7 20:58:39 10° N 21:03:00 52° E 21:03:13 52° E
CZ-4B DEB 3.3 21:03:42 47° SW 21:04:10 52° W 21:07:13 10° NNW
Cosmos 1500 Rocket 4.2 21:01:01 10° N 21:04:27 37° NE 21:04:27 37° NE
Lacrosse 5 rocket 1.6 21:02:50 10° NW 21:06:37 48° NE 21:06:37 48° NE
ARGOS 4.0 21:10:26 32° ENE 21:10:26 32° ENE 21:15:02 10° N
MetOp-A 4.5 21:11:08 43° E 21:11:34 44° ENE 21:16:37 10° N
Cosmos 2061 Rocket 3.9 21:07:00 10° S 21:13:22 78° E 21:19:49 10° N
Cosmos 494 Rocket 4.2 21:11:35 10° N 21:16:31 47° ENE 21:16:35 47° ENE
Timation 2 Rocket 4.0 21:11:08 10° NNW 21:17:28 78° WSW 21:20:08 36° SSE
Cosmos 1674 3.8 21:17:29 10° NNW 21:21:04 41° W 21:22:19 30° SW
Cosmos 1356 Rocket 4.2 21:18:10 10° N 21:21:03 39° NNE 21:21:03 39° NNE
H-2A R/B 3.5 21:24:05 25° NE 21:24:05 25° NE 21:27:29 10° N
Envisat 3.5 21:20:14 23° S 21:23:14 56° W 21:28:15 10° NNW
Lacrosse 5 3.5 21:27:05 10° W 21:31:39 32° NNW 21:36:06 11° NE
YAOGAN 6 3.7 21:34:08 43° NNW 21:34:08 43° NNW 21:36:45 10° NNW
USA 267 3.7 21:32:47 40° ENE 21:34:36 50° NNE 21:40:51 10° NW
SPOT 5 3.3 21:35:43 56° NE 21:35:43 56° NE 21:40:34 10° N
Cosmos 1459 Rocket 4.3 21:29:53 10° SSW 21:36:06 66° W 21:42:17 10° N
Cosmos 1842 Rocket 4.5 21:38:57 41° N 21:38:57 41° N 21:41:51 10° N
Cosmos 2173 Rocket 4.4 21:34:37 10° SSW 21:40:42 63° W 21:46:57 10° N
ERS-1 Rocket 3.2 21:43:25 61° SW 21:43:58 66° WSW 21:49:00 10° NNW
Cosmos 1864 Rocket 4.4 21:45:00 71° ESE 21:45:19 73° E 21:51:37 10° NNE
Cosmos 2151 4.3 21:47:58 10° N 21:50:33 36° N 21:50:33 36° N
Cosmos 1340 Rocket 4.5 21:49:11 10° NNW 21:52:43 30° W 21:52:46 30° W
Terra 3.9 22:00:30 18° NNE 22:00:30 18° NNE 22:02:02 10° N
Cosmos 1833 Rocket 4.2 21:56:22 10° NW 22:01:10 30° WSW 22:02:59 25° SW
NOAA 11 4.3 22:03:50 71° WNW 22:03:50 71° WNW 22:09:00 10° NNW
MetOp-B 4.4 22:06:01 64° WNW 22:06:01 64° WNW 22:10:56 10° NNW
SPOT 1/Viking Rocket 4.3 22:08:12 46° N 22:08:12 46° N 22:11:51 10° N
Cosmos 2251 Rocket 4.0 22:02:23 10° NNW 22:07:00 58° WNW 22:07:00 58° WNW
MOS 1-B Rocket 4.4 22:11:20 74° ESE 22:11:46 76° ENE 22:18:50 10° N
Cosmos 1725 Rocket 4.3 22:19:16 60° W 22:19:44 62° W 22:25:53 10° N
ATLAS 5 CENTAUR R/B 3.2 22:17:41 10° WSW 22:22:07 36° NW 22:26:57 10° NNE
CZ-3B DEB 4.1 22:37:34 10° WNW 22:41:47 19° NNW 22:41:56 19° NNW
USA 215 4.0 22:38:11 10° NE 22:44:26 49° NNW 22:50:38 10° W
H-2A R/B 3.9 23:04:42 28° NW 23:04:42 28° NW 23:07:25 10° NNW
Lacrosse 5 4.4 23:12:39 10° NW 23:15:20 17° NNW 23:15:20 17° NNW
USA 267 4.4 23:20:08 36° WNW 23:20:08 36° WNW 23:23:58 10° NW
Cosmos 2369 Rocket 4.5 23:32:35 19° N 23:32:35 19° N 23:34:17 10° N
